User: anonymous   Login
Location: Unspecified
(0.0000°N, 0.0000°E)
Time: 04:53:04
(UTC+00:00)
Language:

JASON 2 - Orbit

View from above orbital plane
View from above orbital plane
View from above satellite
View from above satellite

Ground track
Ground track

The orbit data is extracted from the following two-line orbital elements,

1 33105U 08032A   18113.61681696 -.00000030 +00000-0 +12551-3 0  9993
2 33105 066.0412 189.4359 0008121 272.4401 190.3207 12.87625340460497
Epoch (UTC): 23 April 2018 14:48:12
Eccentricity: 0.0008121
inclination: 66.0412°
perigee height: 1305 km
apogee height: 1317 km
right ascension of ascending node: 189.4359°
argument of perigee: 272.4401°
revolutions per day: 12.87625340
mean anomaly at epoch: 190.3207°
orbit number at epoch: 46049

The dashed part of the orbit path shows where the satellite is in the earth's shadow,  

DLR